Date,TemperatureHighF,TemperatureAvgF,TemperatureLowF,DewpointHighF,DewpointAvgF,DewpointLowF,HumidityHigh,HumidityAvg,HumidityLow,PressureMaxIn,PressureMinIn,WindSpeedMaxMPH,WindSpeedAvgMPH,GustSpeedMaxMPH,PrecipitationSumIn
2013-8-1,90.0,83.6,79.3,78.7,77.4,73.5,94,83,60,30.00,29.90,18,8,18,0.00
2013-8-2,89.4,83.4,79.3,78.6,77.6,75.5,94,83,65,29.96,29.88,18,8,18,0.00
2013-8-3,89.3,83.7,79.3,80.2,78.5,74.9,96,85,72,30.00,29.93,21,10,21,0.00
2013-8-4,89.5,84.1,80.5,80.9,78.9,76.7,94,85,73,30.03,29.94,24,11,24,0.00
2013-8-5,89.1,83.8,80.6,80.2,78.8,77.8,93,85,72,30.01,29.90,25,12,25,0.00
2013-8-6,89.0,83.7,80.5,80.5,79.1,78.2,95,86,75,29.94,29.83,26,14,26,0.00
2013-8-7,89.8,83.5,79.5,80.4,78.8,77.7,95,86,73,29.91,29.82,26,14,26,0.00
2013-8-8,88.3,83.0,79.2,80.5,78.7,77.1,95,87,74,29.90,29.80,23,11,23,0.00
2013-8-9,91.1,83.3,77.9,80.3,78.0,76.3,96,85,68,29.94,29.84,17,6,17,0.00
2013-8-10,90.5,82.7,75.4,81.5,78.4,75.1,100,88,65,29.98,29.91,17,5,17,0.00
2013-8-11,91.0,83.0,75.8,80.0,77.4,74.6,100,84,65,30.01,29.94,23,6,23,0.00
2013-8-12,90.1,83.6,77.4,79.5,77.6,75.2,95,83,64,30.05,29.94,18,7,18,0.00
2013-8-13,90.8,84.5,79.9,79.8,78.7,77.0,93,83,67,30.02,29.88,20,10,20,0.00
2013-8-14,92.2,84.1,80.4,80.1,77.6,71.2,92,82,56,29.97,29.86,20,10,20,0.00
2013-8-15,91.0,83.7,79.1,79.0,77.4,75.4,93,82,64,29.96,29.87,19,8,19,0.00
2013-8-16,91.7,84.0,76.4,79.9,77.8,73.5,93,82,64,29.97,29.85,23,6,23,0.00
2013-8-17,90.5,81.6,73.7,78.3,74.5,72.0,97,80,61,29.97,29.88,20,7,20,0.00
2013-8-18,90.3,81.8,71.4,76.4,72.6,66.6,96,75,51,29.99,29.92,17,5,17,0.00
2013-8-19,89.6,80.4,69.9,77.7,73.7,68.2,97,81,62,30.00,29.89,18,6,18,0.00
2013-8-20,82.5,78.1,72.9,76.7,74.9,71.9,99,90,79,30.00,29.90,17,4,17,0.43
2013-8-21,88.8,82.7,73.7,79.8,77.6,72.0,98,85,71,30.02,29.95,17,6,17,0.07
2013-8-22,89.2,81.8,75.7,79.6,77.3,75.2,99,87,68,30.02,29.90,14,4,14,0.05
2013-8-23,89.8,82.8,76.2,79.1,77.1,75.2,98,84,64,29.97,29.86,17,5,17,0.00
2013-8-24,89.5,82.5,74.5,80.0,77.5,73.6,99,86,69,29.98,29.90,20,7,20,0.00
2013-8-25,89.7,82.2,74.8,79.9,77.0,73.8,99,85,67,30.02,29.94,18,6,18,0.00
2013-8-26,81.3,76.6,72.8,77.4,75.4,72.0,100,96,87,30.06,29.96,14,3,14,2.83
2013-8-27,88.0,82.8,76.4,80.4,78.1,75.2,97,86,71,30.05,29.96,17,7,17,0.00
2013-8-28,88.8,81.7,74.6,78.9,76.5,73.8,99,85,68,30.05,29.97,16,4,16,0.00
2013-8-29,92.4,83.3,75.4,79.6,76.7,74.5,98,82,62,30.04,29.94,15,4,15,0.00
2013-8-30,91.4,83.5,78.3,79.2,76.5,72.7,93,80,56,30.00,29.89,15,5,15,0.00
2013-8-31,89.8,82.9,78.3,78.3,76.1,74.2,90,81,66,29.93,29.82,18,6,18,0.00